Regional Weather Roundup
Issued by NWS

Home | Current Version | Previous Version | Text Only | Print | Product List | Glossary On
Versions: 1 2 3 4 5 6 7 8 9 10 11 12 13 14 15 16 17 18 19 20 21 22 23 24 25 26 27 28 29 30 31 32 33 34 35 36 37 38 39 40 41 42 43 44 45 46 47 48 49 50
000
ASUS43 KIND 302209
RWRIN

WEATHER ROUNDUP FOR INDIANA
NATIONAL WEATHER SERVICE INDIANAPOLIS IN
600 PM EDT SUN AUG 30 2015

NOTE: "FAIR" INDICATES FEW OR NO CLOUDS BELOW 12,000 FEET WITH NO
SIGNIFICANT WEATHER AND/OR OBSTRUCTIONS TO VISIBILITY.

* - STATION DOES NOT REPORT WEATHER SUCH AS PRECIPITATION OR FOG.

+ - STATION NOT QUALITY CONTROLLED BY THE NATIONAL WEATHER SERVICE.
    USE DATA WITH CAUTION...ESPECIALLY DEWPOINT AND RELATIVE
    HUMIDITY OBSERVATIONS.

INZ001>003-010>013-019-020-302300-
NORTHWEST INDIANA

CITY           SKY/WX    TMP DP  RH WIND       PRES   REMARKS
GARY /AIRPORT/ MOSUNNY   73  64  73 VRB7      30.04F
KNOX *+        MOSUNNY   77  66  69 CALM      30.02F
LA PORTE +     MOSUNNY   77  69  77 N5        30.04S
MICHIGAN CITY+ SUNNY     72  63  73 N6        30.05S
MONTICELLO +   PTSUNNY   80  71  74 NW3       30.01S
RENSSELAER +   MOSUNNY   79  72  78 NW3       30.03S
VALPARAISO     PTSUNNY   77  68  73 NE5       30.04S

$$

LMZ046-743>745-302300-
SOUTHERN LAKE MICHIGAN

STATION/POSITION TIME  TEMP    WIND        PRES    WAVE
                       AIR SEA DIR/SP/G            HT
                 (UTC) (F)     (DEG/KT/KT) (MB)    (FT)
BURNS HARBOR     2100   71      40/  7/  8 1017.6
MICHIGAN CITY    2100   72     360/  4/  5   N/A
5NW MICH CITY    2200   69 72   40/  6/  8   N/A     1

$$

INZ004-005-014>016-021>024-302300-
NORTH CENTRAL INDIANA

CITY           SKY/WX    TMP DP  RH WIND       PRES   REMARKS
ELKHART        PTSUNNY   75  68  78 NW6       30.05
GOSHEN         MOSUNNY   79  69  71 W8        30.03S
LOGANSPORT +   MOSUNNY   82  61  47 W7        30.03S
PERU/GRISSOM   MOSUNNY   83  68  58 W7        30.02S
ROCHESTER +    MOSUNNY   82  70  65 W5        30.03S
SOUTH BEND     MOSUNNY   75  66  73 N8        30.05S
WARSAW +       PTSUNNY   81  70  69 NW6       30.03S

$$

INZ006>009-017-018-025>027-302300-
NORTHEAST INDIANA

CITY           SKY/WX    TMP DP  RH WIND       PRES   REMARKS
ANGOLA *+      MOSUNNY   82  72  69 NW3       30.03S
AUBURN +       PTSUNNY   81  64  57 SW6       30.03F
FORT WAYNE     PTSUNNY   81  68  64 W7        30.03S
HUNTINGTON +   PTSUNNY   84  61  46 W7        30.02S

$$

INZ028-029-035-036-043>045-051>053-302300-
WEST CENTRAL INDIANA

CITY           SKY/WX    TMP DP  RH WIND       PRES   REMARKS
CRAWFORDSVL +  MOSUNNY   82  60  47 SW6       30.03S
GREENCASTLE +  MOSUNNY   81  61  50 CALM      30.04S
LAFAYETTE      MOSUNNY   84  65  52 SW5       30.01S
TERRE HAUTE    MOSUNNY   85  65  51 S9        30.02S

$$

INZ030>032-037>040-046>048-054>057-064-065-302300-
CENTRAL INDIANA

CITY           SKY/WX    TMP DP  RH WIND       PRES   REMARKS
COLUMBUS       PTSUNNY   82  63  51 S12       30.03S
FRANKFORT +    MOSUNNY   84  68  58 S8        30.05S
GREENWOOD *+   MOSUNNY   84  63  48 SW5       30.04S
INDIANAPOLIS   PTSUNNY   84  65  52 SW10      30.02F
-EAGLE CREEK   MOSUNNY   83  65  54 SW7       30.03S
KOKOMO *+      MOSUNNY   82  66  57 W8        30.03S
MARION +       MOSUNNY   83  54  36 W10       30.03F
MT COMFORT *+  SUNNY     84  55  37 SW5       30.04S
SHELBYVILLE    MOSUNNY   86  66  51 SW8       30.02F
ZIONSVILLE +   MOSUNNY   84  64  50 SW6       30.04F

$$

INZ033-034-041-042-049-050-058-059-302300-
EAST CENTRAL INDIANA

CITY           SKY/WX    TMP DP  RH WIND       PRES   REMARKS
MUNCIE         SUNNY     81  64  56 W7        30.03S

$$

INZ060-061-067>069-081>083-085>088-302300-
SOUTHWEST INDIANA

CITY           SKY/WX    TMP DP  RH WIND       PRES   REMARKS
EVANSVILLE     PTSUNNY   84  68  58 S7        30.03S
HUNTINGBURG *+ MOSUNNY   84  68  58 S10       30.04S
WASHINGTON +   PTSUNNY   75  70  84 S8        30.03S

$$

INZ062-063-066-070>080-084-089>092-302300-
SOUTH CENTRAL AND SOUTHEAST INDIANA

CITY           SKY/WX    TMP DP  RH WIND       PRES   REMARKS
BLOOMINGTON    MOSUNNY   83  65  54 S6        30.04F
MADISON *+     MOSUNNY   82  64  54 S7        30.07S
NORTH VERNON + MOSUNNY   86  63  45 SW7       30.04F
SEYMOUR +      PTSUNNY   86  66  51 W8        30.03F

$$



USA.gov is the U.S. government's official web portal to all federal, state and local government web resources and services.